Haines, AK

4:07 AM AKDT on August 23, 2017 (GMT -0800)
Haines

Weather History for PAHN - October, 2011

Change the Weather History Date:

Monday, October 17, 2011

  Actual Average Record
Temperature  
Mean Temperature 42 °F -  
Max Temperature 46 °F 44 °F 55 °F (2015)
Min Temperature 37 °F 36 °F 24 °F (1992)
Degree Days  
Heating Degree Days 24    
Moisture  
Dew Point 39 °F    
Average Humidity 89    
Maximum Humidity 100    
Minimum Humidity 68    
Precipitation  
Precipitation 0.34 in - - ()
Sea Level Pressure  
Sea Level Pressure 29.87 in    
Wind  
Wind Speed 6 mph (NW)    
Max Wind Speed 15 mph    
Max Gust Speed -    
Visibility 9 miles    
Events Rain    
Averages and records for this station are not official NWS values.
T = Trace of Precipitation, MM = Missing Value Source: NWS Daily Summary

Daily Weather History Graph

Daily Weather History Graph

Search for Another Location

Airport or City:

Trip Planner

Search our weather history database for the weather conditions in past years. The results will help you decide how hot, cold, wet, or windy it might be!

Date:

Astronomy

Oct. 17, 2011 Rise Set
Actual Time 7:44 AM AKDT 5:49 PM AKDT
Civil Twilight 7:02 AM AKDT 6:30 PM AKDT
Nautical Twilight 6:15 AM AKDT 7:17 PM AKDT
Astronomical Twilight 5:28 AM AKDT 8:04 PM AKDT
Moon 8:33 PM AKDT (10/17) 2:02 PM AKDT (10/17)
Length of Visible Light 11h 27m
Length of Day
10h 04m
Waning Gibbous, 73% of the Moon is Illuminated
Oct 17
Waning Gibbous
Oct 19
Last Quarter
Oct 26
New
Nov 2
First Quarter
Nov 10
Full

Hourly Weather History & Observations

Time (AKDT) Temp. Windchill Dew Point Humidity Pressure Visibility Wind Dir Wind Speed Gust Speed Precip Events Conditions
12:22 AM 41.0 °F - 39.2 °F 93% 29.92 in 10.0 mi Calm Calm - N/A   Overcast
12:54 AM 41.0 °F - 39.9 °F 96% 29.94 in 10.0 mi Calm Calm - N/A   Overcast
1:54 AM 43.0 °F 38.2 °F 41.0 °F 93% 29.94 in 10.0 mi WNW 8.1 mph - N/A   Overcast
2:54 AM 42.1 °F 37.7 °F 41.0 °F 96% 29.94 in 10.0 mi WNW 6.9 mph - N/A   Overcast
3:54 AM 42.1 °F - 39.9 °F 92% 29.94 in 10.0 mi Calm Calm - N/A   Overcast
4:05 AM 42.8 °F - 39.2 °F 87% 29.93 in 10.0 mi Calm Calm - N/A   Mostly Cloudy
4:42 AM 42.8 °F 36.6 °F 39.2 °F 87% 29.92 in 10.0 mi NW 11.5 mph - N/A   Mostly Cloudy
4:52 AM 42.8 °F 36.2 °F 39.2 °F 87% 29.93 in 10.0 mi NW 12.7 mph - N/A   Overcast
4:54 AM 42.1 °F 36.1 °F 39.9 °F 92% 29.94 in 10.0 mi NW 10.4 mph - N/A   Overcast
5:54 AM 42.1 °F 35.7 °F 39.9 °F 92% 29.94 in 10.0 mi NW 11.5 mph - N/A   Scattered Clouds
6:54 AM 42.1 °F 36.6 °F 39.9 °F 92% 29.94 in 10.0 mi NW 9.2 mph - N/A   Overcast
7:54 AM 42.1 °F 37.1 °F 39.0 °F 89% 29.94 in 10.0 mi NW 8.1 mph - N/A   Overcast
8:54 AM 43.0 °F 36.0 °F 39.0 °F 86% 29.95 in 10.0 mi NW 13.8 mph - N/A   Mostly Cloudy
9:54 AM 43.0 °F 35.7 °F 37.0 °F 80% 29.95 in 10.0 mi NW 15.0 mph - N/A   Overcast
10:54 AM 43.0 °F 36.0 °F 37.9 °F 82% 29.97 in 10.0 mi NW 13.8 mph - N/A   Overcast
11:54 AM 44.1 °F 37.4 °F 37.9 °F 79% 29.97 in 10.0 mi NW 13.8 mph - N/A   Overcast
12:54 PM 45.0 °F 38.5 °F 37.9 °F 76% 29.96 in 10.0 mi NW 13.8 mph - N/A   Overcast
1:54 PM 46.0 °F 40.6 °F 36.0 °F 68% 29.94 in 10.0 mi WNW 11.5 mph - N/A   Overcast
2:54 PM 46.0 °F 40.6 °F 36.0 °F 68% 29.91 in 10.0 mi WNW 11.5 mph - N/A   Scattered Clouds
3:54 PM 45.0 °F 40.1 °F 37.0 °F 74% 29.91 in 10.0 mi NW 9.2 mph - 0.00 in Rain Light Rain
4:54 PM 45.0 °F 42.6 °F 37.9 °F 76% 29.88 in 10.0 mi WNW 4.6 mph - 0.00 in Rain Light Rain
5:54 PM 43.0 °F - 39.9 °F 89% 29.86 in 10.0 mi Calm Calm - 0.00 in Rain Light Rain
6:39 PM 42.8 °F 41.1 °F 41.0 °F 93% 29.83 in 7.0 mi North 3.5 mph - 0.01 in Rain Light Rain
6:54 PM 42.1 °F - 41.0 °F 96% 29.84 in 6.0 mi Calm Calm - 0.03 in Rain Light Rain
7:38 PM 41.0 °F - 39.2 °F 93% 29.82 in 10.0 mi Calm Calm - 0.02 in Rain Light Rain
7:54 PM 41.0 °F 39.0 °F 39.9 °F 96% 29.82 in 7.0 mi NW 3.5 mph - 0.03 in Rain Light Rain
8:18 PM 41.0 °F 38.0 °F 39.2 °F 93% 29.80 in 10.0 mi WNW 4.6 mph - 0.02 in Rain Light Rain
8:32 PM 41.0 °F 37.1 °F 39.2 °F 93% 29.79 in 9.0 mi WNW 5.8 mph - 0.03 in Rain Light Rain
8:45 PM 41.0 °F 37.1 °F 39.2 °F 93% 29.79 in 6.0 mi WNW 5.8 mph - 0.05 in Rain Rain
8:54 PM 41.0 °F 36.4 °F 39.0 °F 93% 29.79 in 7.0 mi WNW 6.9 mph - 0.07 in Rain Rain
9:12 PM 39.2 °F 34.2 °F 39.2 °F 100% 29.78 in 8.0 mi WNW 6.9 mph - 0.02 in Rain Rain
9:54 PM 39.0 °F 32.8 °F 37.0 °F 93% 29.77 in 9.0 mi WNW 9.2 mph - 0.04 in Rain Light Rain
10:54 PM 37.9 °F 32.1 °F 36.0 °F 93% 29.73 in 10.0 mi WNW 8.1 mph - 0.06 in Rain Light Rain
11:11 PM 37.4 °F 30.8 °F 35.6 °F 93% 29.72 in 7.0 mi WNW 9.2 mph - 0.03 in Rain Rain
11:22 PM 37.4 °F 30.8 °F 35.6 °F 93% 29.72 in 6.0 mi WNW 9.2 mph - 0.05 in Rain Rain
11:54 PM 37.0 °F 31.0 °F 36.0 °F 96% 29.70 in 6.0 mi WNW 8.1 mph - 0.11 in Rain Rain